Weather History for KE38 - December, 2012

Change the Weather History Date:

Sunday, December 23, 2012

  Actual Average (KMRF) Record (KMRF)
Temperature  
Mean Temperature 56 °F -  
Max Temperature 67 °F 52 °F 68 °F (2005)
Min Temperature 44 °F 22 °F 8 °F (2007)
Degree Days  
Heating Degree Days 10    
Growing Degree Days 6 (Base 50)    
Moisture  
Dew Point 28 °F    
Average Humidity 35    
Maximum Humidity 43    
Minimum Humidity 25    
Precipitation  
Precipitation 0.00 in - - ()
Sea Level Pressure  
Sea Level Pressure 30.16 in    
Wind  
Wind Speed 10 mph (SW)    
Max Wind Speed 18 mph    
Max Gust Speed 29 mph    
Visibility 10 miles    
Events      
Averages and records for this station are not official NWS values.
T = Trace of Precipitation, MM = Missing Value Source: NWS Daily Summary

Daily Weather History Graph

Daily Weather History Graph

Search for Another Location

Airport or City:

Trip Planner

Search our weather history database for the weather conditions in past years. The results will help you decide how hot, cold, wet, or windy it might be!

Date:

Astronomy

Dec. 23, 2012 Rise Set
Actual Time 7:48 AM CST 5:59 PM CST
Civil Twilight 7:22 AM CST 6:26 PM CST
Nautical Twilight 6:52 AM CST 6:56 PM CST
Astronomical Twilight 6:22 AM CST 7:25 PM CST
Moon 2:44 PM CST (12/23) 3:41 AM CST (12/23)
Length of Visible Light 11h 04m
Length of Day
10h 11m
Waxing Gibbous, 82% of the Moon is Illuminated
Dec 23
Waxing Gibbous
Dec 28
Full
Jan 4
Last Quarter
Jan 11
New
Jan 18
First Quarter

Hourly Weather History & Observations

Time (CST) Temp. Windchill Dew Point Humidity Pressure Visibility Wind Dir Wind Speed Gust Speed Precip Events Conditions
12:15 AM 54.9 °F - 20.7 °F 26% 30.21 in 10.0 mi SSW 12.7 mph - N/A   Mostly Cloudy
12:35 AM 55.4 °F - 20.3 °F 25% 30.21 in 10.0 mi SSW 10.4 mph - N/A   Mostly Cloudy
12:55 AM 55.9 °F - 20.3 °F 25% 30.20 in 10.0 mi SW 10.4 mph - N/A   Overcast
1:15 AM 56.1 °F - 20.1 °F 25% 30.19 in 10.0 mi SW 10.4 mph - N/A   Overcast
1:35 AM 55.8 °F - 20.3 °F 25% 30.19 in 10.0 mi SW 11.5 mph - N/A   Mostly Cloudy
1:55 AM 55.0 °F - 20.3 °F 26% 30.19 in 10.0 mi SW 8.1 mph - N/A   Scattered Clouds
2:15 AM 53.4 °F - 20.5 °F 28% 30.19 in 10.0 mi SW 10.4 mph - N/A   Scattered Clouds
2:35 AM 52.0 °F - 19.9 °F 28% 30.18 in 10.0 mi SW 11.5 mph - N/A   Scattered Clouds
2:55 AM 51.1 °F - 19.6 °F 29% 30.18 in 10.0 mi SW 11.5 mph - N/A   Clear
3:15 AM 49.8 °F - 19.8 °F 31% 30.18 in 10.0 mi SW 10.4 mph - N/A   Clear
3:35 AM 49.1 °F - 20.7 °F 33% 30.18 in 10.0 mi SSW 12.7 mph - N/A   Clear
3:55 AM 49.8 °F - 21.2 °F 32% 30.18 in 10.0 mi SSW 11.5 mph - N/A   Clear
4:15 AM 47.7 °F - 21.0 °F 35% 30.18 in 10.0 mi SSW 10.4 mph - N/A   Clear
4:35 AM 48.2 °F - 21.4 °F 35% 30.17 in 10.0 mi SSW 10.4 mph - N/A   Clear
4:55 AM 51.6 °F - 21.9 °F 31% 30.16 in 10.0 mi SSW 11.5 mph - N/A   Clear
5:15 AM 50.9 °F - 22.5 °F 33% 30.15 in 10.0 mi SSW 9.2 mph - N/A   Clear
5:35 AM 49.6 °F - 22.6 °F 35% 30.15 in 10.0 mi SSW 9.2 mph - N/A   Clear
5:55 AM 48.7 °F - 22.1 °F 35% 30.16 in 10.0 mi South 5.8 mph - N/A   Clear
6:15 AM 46.9 °F - 22.5 °F 38% 30.16 in 10.0 mi South 4.6 mph - N/A   Clear
6:35 AM 44.4 °F - 22.5 °F 42% 30.16 in 10.0 mi Calm Calm - N/A   Clear
6:55 AM 44.8 °F 40.4 °F 23.2 °F 43% 30.16 in 10.0 mi SSW 8.1 mph - N/A   Clear
7:15 AM 44.8 °F 42.4 °F 23.5 °F 43% 30.17 in 10.0 mi SSW 4.6 mph - N/A   Clear
7:35 AM 45.7 °F 44.4 °F 24.3 °F 43% 30.17 in 10.0 mi SSW 3.5 mph - N/A   Clear
7:55 AM 47.7 °F - 25.5 °F 42% 30.18 in 10.0 mi Calm Calm - N/A   Clear
8:15 AM 47.5 °F - 26.1 °F 43% 30.17 in 10.0 mi SW 3.5 mph - N/A   Clear
8:35 AM 48.2 °F - 26.6 °F 43% 30.19 in 10.0 mi SSW 4.6 mph - N/A   Clear
8:55 AM 49.8 °F - 27.9 °F 43% 30.18 in 10.0 mi South 3.5 mph - N/A   Clear
9:15 AM 51.6 °F - 28.4 °F 41% 30.19 in 10.0 mi Calm Calm - N/A   Clear
9:35 AM 53.4 °F - 29.5 °F 40% 30.19 in 10.0 mi SSW 6.9 mph - N/A   Clear
9:55 AM 57.0 °F - 30.4 °F 36% 30.19 in 10.0 mi SW 8.1 mph - N/A   Clear
10:15 AM 59.4 °F - 30.7 °F 34% 30.19 in 10.0 mi SW 10.4 mph - N/A   Clear
10:35 AM 60.8 °F - 31.1 °F 33% 30.20 in 10.0 mi SW 11.5 mph - N/A   Clear
10:55 AM 61.3 °F - 31.5 °F 32% 30.19 in 10.0 mi SW 9.2 mph - N/A   Clear
11:15 AM 61.9 °F - 31.8 °F 32% 30.19 in 10.0 mi SW 11.5 mph - N/A   Clear
11:35 AM 62.4 °F - 32.0 °F 32% 30.17 in 10.0 mi SSW 10.4 mph - N/A   Clear
11:55 AM 63.1 °F - 32.0 °F 31% 30.17 in 10.0 mi SW 9.2 mph - N/A   Clear
12:15 PM 63.1 °F - 32.4 °F 32% 30.15 in 10.0 mi SW 11.5 mph - N/A   Clear
12:35 PM 63.5 °F - 32.2 °F 31% 30.15 in 10.0 mi SSW 12.7 mph - N/A   Clear
12:55 PM 64.2 °F - 32.4 °F 30% 30.13 in 10.0 mi SSW 13.8 mph - N/A   Clear
1:15 PM 66.0 °F - 32.9 °F 29% 30.12 in 10.0 mi SSW 12.7 mph - N/A   Clear
1:35 PM 66.7 °F - 33.4 °F 29% 30.11 in 10.0 mi WSW 10.4 mph 18.4 mph N/A   Clear
1:55 PM 66.6 °F - 34.5 °F 31% 30.11 in 10.0 mi SW 12.7 mph 21.9 mph N/A   Clear
2:15 PM 66.9 °F - 35.1 °F 31% 30.09 in 10.0 mi WSW 17.3 mph 23.0 mph N/A   Clear
2:35 PM 67.1 °F - 35.6 °F 31% 30.10 in 10.0 mi WSW 16.1 mph 24.2 mph N/A   Clear
2:55 PM 66.9 °F - 35.6 °F 31% 30.10 in 10.0 mi West 16.1 mph 19.6 mph N/A   Clear
3:15 PM 66.4 °F - 35.6 °F 32% 30.10 in 10.0 mi WSW 16.1 mph 20.7 mph N/A   Clear
3:35 PM 65.8 °F - 36.1 °F 33% 30.11 in 10.0 mi West 12.7 mph 28.8 mph N/A   Clear
3:55 PM 65.3 °F - 36.5 °F 34% 30.11 in 10.0 mi WSW 18.4 mph 21.9 mph N/A   Clear
4:15 PM 64.6 °F - 36.5 °F 35% 30.12 in 10.0 mi West 11.5 mph 17.3 mph N/A   Clear
4:35 PM 64.2 °F - 35.8 °F 35% 30.13 in 10.0 mi West 6.9 mph - N/A   Clear
4:55 PM 63.7 °F - 35.6 °F 35% 30.13 in 10.0 mi West 8.1 mph 16.1 mph N/A   Clear
5:15 PM 63.0 °F - 35.2 °F 36% 30.12 in 10.0 mi West 5.8 mph - N/A   Clear
5:35 PM 61.7 °F - 34.7 °F 36% 30.12 in 10.0 mi WSW 6.9 mph - N/A   Clear
5:55 PM 60.8 °F - 34.3 °F 37% 30.13 in 10.0 mi West 6.9 mph 17.3 mph N/A   Clear
6:15 PM 60.4 °F - 34.2 °F 37% 30.12 in 10.0 mi WSW 12.7 mph 18.4 mph N/A   Clear
6:35 PM 59.0 °F - 33.3 °F 38% 30.13 in 10.0 mi WSW 8.1 mph - N/A   Clear
6:55 PM 57.7 °F - 32.7 °F 39% 30.13 in 10.0 mi WSW 9.2 mph - N/A   Clear
7:15 PM 57.9 °F - 31.6 °F 37% 30.15 in 10.0 mi SW 3.5 mph - N/A   Clear
7:35 PM 57.0 °F - 30.9 °F 37% 30.15 in 10.0 mi SSW 4.6 mph - N/A   Clear
7:55 PM 55.4 °F - 31.5 °F 40% 30.15 in 10.0 mi SSW 8.1 mph - N/A   Clear
8:15 PM 53.8 °F - 31.3 °F 42% 30.16 in 10.0 mi SW 8.1 mph - N/A   Clear
8:35 PM 54.9 °F - 30.0 °F 39% 30.15 in 10.0 mi WSW 12.7 mph - N/A   Clear
8:55 PM 56.1 °F - 28.9 °F 35% 30.15 in 10.0 mi SW 9.2 mph - N/A   Clear
9:15 PM 55.6 °F - 29.1 °F 36% 30.15 in 10.0 mi WSW 8.1 mph - N/A   Clear
9:35 PM 54.7 °F - 29.3 °F 38% 30.15 in 10.0 mi WSW 6.9 mph - N/A   Clear
9:55 PM 53.4 °F - 29.1 °F 39% 30.15 in 10.0 mi North 6.9 mph - N/A   Clear
10:15 PM 54.0 °F - 29.3 °F 39% 30.16 in 10.0 mi West 11.5 mph 18.4 mph N/A   Clear
10:35 PM 54.7 °F - 28.8 °F 37% 30.15 in 10.0 mi WSW 15.0 mph - N/A   Clear
10:55 PM 52.7 °F - 28.0 °F 39% 30.15 in 10.0 mi SSW 9.2 mph - N/A   Clear
11:15 PM 50.2 °F - 28.0 °F 42% 30.15 in 10.0 mi SW 6.9 mph - N/A   Clear
11:35 PM 51.6 °F - 28.2 °F 41% 30.15 in 10.0 mi SW 12.7 mph - N/A   Clear
11:55 PM 49.6 °F - 27.5 °F 42% 30.15 in 10.0 mi South 5.8 mph - N/A   Clear